Presure
263 207 237 247 248 260 248 241 235 234 229 225 221 221 219 235 244 275 266 332 438 588 478 505 543 540 559 541 570 281 295 308 279 268 274 278 167 286 132 102 236 102 224 198
250 254 241 250 244 245 239 235 233 226 226 216 218 214 230 230 244 255 303 336 461 603 451 560 527 525 537 557 587 201 535 289 303 274 275 272 266 155 120 125 102 104 194 197
255 258 256 243 244 240 237 231 224 221 216 231 220 224 238 234 250 269 310 340 518 454 605 602 526 436 515 536 561 568 523 367 295 294 274 270 273 259 159 137 104 157 160 175
246 247 251 246 237 236 232 227 221 216 216 222 217 230 229 241 236 268 307 341 516 574 603 583 430 505 508 542 553 571 573 586 267 307 280 208 276 152 156 163 183 184 108 122
270 251 245 231 237 234 229 224 220 219 223 214 216 221 227 228 234 263 303 332 515 591 591 420 504 496 508 538 537 543 571 527 605 89 299 264 275 154 153 160 162 203 171 130
250 251 235 223 235 227 225 218 216 223 217 216 217 225 217 226 239 257 294 318 512 601 538 422 492 493 491 511 185 529 549 569 592 289 273 272 260 269 256 161 160 163 96 96
241 232 230 234 227 220 221 221 236 217 213 217 216 218 224 227 241 251 281 320 510 564 543 421 467 473 478 430 499 513 535 531 579 440 232 273 250 271 254 162 161 165 174 87
237 229 234 227 222 221 221 222 235 217 216 211 215 221 220 227 235 242 270 304 444 587 589 406 450 461 472 485 482 497 519 542 569 544 252 272 244 240 237 210 211 168 102 184
234 231 230 227 219 226 218 234 229 221 217 212 217 211 206 227 228 242 256 285 328 511 613 388 445 452 464 474 474 487 510 526 553 571 268 261 245 245 229 222 215 199 184 193
225 232 226 227 220 219 221 229 229 215 220 207 212 208 212 226 225 235 246 273 301 585 626 370 427 446 457 474 321 482 494 514 536 562 274 259 234 245 252 248 211 162 187 195
237 224 222 219 218 221 220 220 229 224 224 213 213 217 214 218 218 230 235 259 282 332 632 354 373 442 231 446 445 479 490 506 521 546 266 252 224 242 229 230 202 180 191 187
234 226 216 216 215 223 219 211 223 226 227 221 219 214 214 217 225 217 231 249 267 301 626 643 358 396 433 430 471 471 468 492 516 536 265 247 218 227 247 239 203 197 192 209
230 216 219 218 217 218 216 211 208 220 231 231 214 217 216 221 220 219 231 236 256 274 327 648 434 367 422 435 455 471 124 481 489 516 252 240 214 219 248 233 199 200 183 190
229 228 221 224 222 218 216 214 212 218 229 231 221 220 219 221 217 221 215 232 248 259 296 421 658 354 378 417 440 454 290 485 485 454 254 238 227 218 245 251 204 202 192 180
232 229 229 231 225 217 218 214 207 206 218 231 233 212 220 227 216 212 221 232 235 247 269 309 575 649 354 394 401 435 463 475 448 481 381 234 238 223 241 220 212 187 200 182
235 228 220 230 227 223 216 217 211 211 217 227 231 220 207 229 220 219 224 217 233 242 260 275 313 647 608 361 403 396 446 469 470 484 251 229 246 214 235 250 234 184 205 186
243 236 228 227 237 229 224 219 220 215 219 218 222 228 241 230 217 212 220 223 221 233 246 260 279 321 666 578 368 399 416 451 455 471 399 227 245 213 235 253 212 179 198 166
251 241 233 240 233 237 233 224 227 217 217 214 218 219 229 222 217 219 213 214 220 232 235 247 263 279 325 592 588 376 406 438 454 459 277 230 235 213 237 251 204 204 201 202
255 250 236 226 235 233 228 230 222 219 218 215 215 218 223 216 223 220 218 215 224 216 237 239 252 265 279 323 585 685 408 413 449 464 262 228 191 217 233 239 220 206 200 180
263 251 250 238 227 231 235 231 227 221 221 219 216 218 221 221 217 217 223 216 215 227 215 237 245 260 263 277 308 367 692 452 416 446 258 225 213 230 214 245 247 218 208 204
264 260 246 251 239 233 228 231 228 227 228 224 221 223 219 223 216 220 220 225 216 229 226 219 236 247 262 267 272 295 348 613 514 420 382 224 212 214 195 229 228 177 209 192
265 270 259 245 248 238 231 229 230 233 231 228 223 224 223 219 214 217 217 222 221 222 228 226 224 235 250 264 266 275 290 325 387 540 439 244 217 195 219 188 228 234 209 196
270 281 271 261 248 245 242 235 233 233 236 229 229 224 227 225 221 218 223 216 224 225 227 230 227 239 233 250 264 270 275 289 312 354 670 507 235 219 206 230 284 215 220 200
239 253 239 285 258 259 246 242 238 235 233 237 233 228 228 227 229 227 228 220 218 225 225 233 234 227 243 233 250 262 278 275 292 309 326 378 691 223 195 198 212 222 223 209
257 279 268 227 283 269 253 257 255 245 241 241 236 236 234 233 231 229 227 232 227 230 226 231 222 236 248 248 236 250 258 277 287 292 295 313 331 253 210 217 206 218 221 214
293 268 269 254 257 275 264 255 259 256 252 252 245 240 235 234 238 237 237 237 239 238 240 234 240 238 259 252 239 239 247 255 269 284 286 295 314 336 211 219 224 218 232 208
Wind_Speed
49 57 47 55 49 43 42 44 47 48 46 50 52 60 64 67 67 75 77 88 79 47 60 54 47 47 47 51 50 103 109 118 114 109 102 100 99 107 82 66 90 63 98 108
42 49 49 50 42 38 41 42 43 46 45 49 53 64 61 67 65 68 86 87 74 42 60 41 42 44 46 45 43 21 57 105 116 110 105 101 97 102 70 77 61 62 102 104
44 43 45 39 36 38 38 39 42 43 50 45 52 55 55 61 67 76 87 86 60 58 44 33 35 45 43 43 41 43 62 83 107 114 106 102 99 100 102 86 65 88 85 92
41 38 34 32 37 36 36 38 42 45 44 48 50 49 55 60 65 79 87 89 59 48 40 31 41 33 39 37 38 35 37 43 98 114 108 79 101 109 108 107 97 101 66 74
32 31 30 35 36 34 35 36 39 41 41 49 52 51 53 59 63 79 88 86 58 45 34 39 27 30 32 29 28 28 27 54 43 34 115 102 103 114 112 109 109 103 105 74
29 28 30 36 34 34 36 36 37 36 42 45 45 48 59 57 63 77 87 88 56 39 30 39 25 24 24 20 31 21 24 31 37 110 101 105 100 105 110 114 115 112 63 59
27 29 32 35 32 37 36 35 27 34 41 41 42 48 55 58 67 76 85 91 55 33 25 38 25 21 18 18 13 15 19 35 31 86 88 105 99 105 113 115 118 115 105 53
28 30 31 33 33 35 35 34 27 29 34 44 44 43 51 59 64 69 84 89 67 38 25 41 27 18 13 8 10 11 17 22 25 53 98 103 100 105 114 115 125 116 67 111
30 31 30 32 33 30 36 32 30 27 32 37 39 43 52 57 60 70 79 85 89 46 25 44 27 18 11 6 3 8 13 17 22 28 106 101 102 107 113 118 129 115 112 110
31 32 31 31 33 31 30 31 30 32 26 35 36 41 42 52 56 65 73 83 88 37 26 46 33 20 12 6 21 6 11 16 22 28 111 103 103 105 115 130 127 119 114 117
31 30 32 31 33 30 29 30 31 30 31 32 31 36 38 43 48 60 63 77 82 82 28 48 42 22 26 7 8 7 11 17 21 28 109 103 107 105 112 127 126 120 119 113
33 31 34 33 34 30 30 32 30 30 31 29 32 31 33 38 45 44 58 72 75 82 29 23 43 35 19 7 4 9 15 16 23 28 111 105 108 106 113 132 132 128 119 124
39 35 36 36 35 34 33 34 35 32 32 31 32 29 31 33 40 41 57 58 68 75 74 24 31 37 23 15 6 9 44 15 19 24 109 105 110 107 114 134 129 134 117 121
42 41 40 38 37 37 35 36 35 34 35 35 29 33 33 30 34 42 39 54 64 66 75 59 19 35 30 19 10 7 21 16 18 51 109 106 108 111 117 131 135 137 123 118
43 44 43 38 38 39 37 38 39 38 33 32 35 27 29 32 31 34 39 50 54 58 66 69 34 15 29 21 12 6 7 14 29 33 74 107 107 113 118 132 145 123 133 119
46 43 45 47 36 39 40 39 41 39 34 29 30 28 27 32 27 30 36 33 49 53 60 63 63 22 9 24 16 8 8 16 17 26 110 108 110 119 120 126 141 123 137 127
46 45 47 50 46 39 40 41 38 36 33 30 28 29 29 26 26 25 29 34 34 44 49 53 59 58 17 9 19 12 5 14 15 24 58 108 111 120 122 122 144 124 140 110
47 46 46 46 49 44 38 39 37 35 33 31 29 28 25 23 25 24 23 25 29 39 38 43 47 52 55 25 9 16 10 7 18 22 110 108 112 122 119 121 135 149 146 137
49 48 48 47 48 47 44 40 39 38 32 33 31 30 28 23 22 23 22 21 29 21 36 34 38 41 45 51 19 14 11 6 9 26 109 109 110 122 121 124 141 148 140 123
53 48 50 51 48 48 46 44 42 43 39 35 34 32 29 29 24 22 24 20 18 26 17 31 31 33 30 36 45 44 14 4 2 14 107 110 120 115 123 122 134 149 148 143
54 55 50 51 48 51 46 46 45 45 42 42 37 35 32 30 31 27 23 24 19 22 21 15 25 26 25 24 23 33 37 13 8 7 45 110 120 120 112 124 134 103 149 140
52 56 58 51 53 51 49 47 46 46 45 44 42 38 35 34 33 32 26 25 22 20 19 17 15 18 21 17 12 16 20 26 28 20 23 112 117 122 124 92 133 142 153 144
51 59 55 56 57 55 53 52 48 48 48 45 44 43 40 36 36 36 34 28 26 22 20 19 15 19 14 17 14 5 5 13 18 20 14 30 115 123 127 125 128 142 149 151
54 54 47 54 58 59 57 55 54 51 49 49 47 46 44 41 41 38 39 35 30 28 24 23 21 17 19 14 16 14 7 9 5 11 7 13 14 123 128 128 137 139 152 154
65 58 51 42 56 55 56 57 58 58 57 56 51 50 48 47 45 44 42 43 39 36 30 27 22 23 26 23 19 19 19 14 12 10 16 15 36 123 133 131 128 143 150 157
67 53 52 48 51 56 58 55 54 54 56 56 55 53 51 50 51 50 48 48 46 44 41 35 33 28 34 29 28 25 24 26 26 22 32 29 17 23 130 135 136 129 154 157
Wind_Direction
262 280 279 279 279 284 281 280 281 282 282 284 287 285 284 286 293 313 305 315 313 301 297 288 283 280 280 263 261 241 236 229 230 231 227 221 219 210 227 222 213 217 225 236
281 268 274 277 276 279 278 279 279 281 282 284 285 282 289 290 302 311 323 324 318 307 299 283 280 281 280 278 275 232 250 230 225 226 225 221 216 217 225 223 215 213 230 232
280 273 269 268 274 272 273 276 277 279 284 289 285 294 308 303 317 328 331 331 324 318 314 298 276 273 277 278 272 264 233 230 223 220 221 219 214 208 215 222 222 220 219 219
266 272 270 270 268 271 270 271 273 278 285 285 289 306 306 321 308 334 337 338 330 322 318 301 289 278 278 279 271 268 252 240 221 216 216 215 211 218 217 216 215 214 211 218
264 263 266 268 268 269 271 274 276 282 286 285 288 302 313 313 318 338 342 343 335 322 318 312 293 287 288 285 270 265 252 227 234 221 212 211 209 218 221 217 218 210 221 222
263 264 264 271 268 271 273 274 281 284 285 291 301 315 303 318 331 342 345 347 338 323 316 323 303 295 294 287 236 265 250 242 237 211 209 207 205 201 196 218 220 221 216 223
264 266 269 266 267 270 275 277 283 282 287 298 302 306 322 324 341 344 348 350 343 325 320 332 319 310 302 264 268 260 246 230 240 211 204 204 199 200 195 216 221 222 211 216
263 269 266 267 268 274 277 280 286 276 287 289 296 319 323 331 340 345 350 355 351 338 327 345 334 326 310 276 263 256 243 233 228 218 199 200 196 195 194 200 196 222 222 221
265 269 264 266 268 272 277 289 290 288 292 297 311 311 313 336 339 347 350 356 358 350 328 354 345 345 326 280 264 252 238 223 214 213 198 196 194 194 193 196 195 206 216 215
270 267 269 265 269 272 280 288 292 288 288 289 304 306 318 340 340 349 351 356 360 348 337 0 353 353 345 287 231 228 213 205 203 201 195 194 191 191 193 193 198 223 214 212
263 267 269 268 275 275 279 286 295 293 296 289 302 314 320 336 336 349 351 355 0 3 344 2 6 358 220 339 201 187 192 187 192 192 192 190 189 191 191 194 199 213 211 215
261 264 268 270 275 276 277 279 295 299 301 301 308 311 320 331 347 339 351 353 0 5 349 339 7 7 6 11 149 158 179 173 183 185 191 189 190 190 192 192 196 204 209 207
265 273 270 269 270 274 277 279 285 295 303 305 296 308 317 338 342 347 353 354 360 4 8 345 2 10 10 19 63 139 235 168 185 184 190 188 190 190 193 192 199 203 212 210
267 267 272 269 273 273 276 281 285 295 305 307 304 313 319 334 341 351 345 354 358 2 8 13 345 11 13 13 36 85 217 165 187 209 190 188 190 192 194 193 198 201 209 215
261 265 268 265 269 274 278 281 289 292 298 307 309 303 321 334 340 337 351 356 357 2 7 12 10 340 13 14 16 49 128 158 211 196 189 187 190 192 194 195 194 207 206 215
264 265 276 272 265 269 273 275 281 287 294 305 312 304 306 330 336 342 352 349 357 1 4 12 16 3 310 17 20 12 119 155 177 186 191 187 191 194 195 195 195 211 203 213
262 262 269 273 271 265 267 273 275 282 289 297 305 318 331 331 321 325 346 356 356 357 3 9 16 21 357 329 22 30 58 147 166 182 192 189 191 195 196 197 196 217 206 230
259 261 264 265 270 271 269 269 274 278 283 290 300 305 318 320 313 328 331 342 351 355 1 5 14 20 25 13 319 28 42 126 166 178 194 191 193 198 197 198 203 203 205 208
260 258 262 271 268 271 275 272 276 277 279 286 293 297 302 297 316 317 325 334 352 344 353 3 8 20 25 27 13 341 27 56 164 182 197 194 211 199 198 199 199 203 209 224
259 264 259 262 269 269 273 274 274 277 280 281 283 288 293 297 299 305 319 318 329 346 333 352 1 15 25 27 26 35 344 329 137 197 199 197 199 199 204 202 202 203 207 208
257 259 265 260 260 263 267 270 275 276 277 280 282 284 288 292 293 299 304 312 308 336 339 330 347 353 15 33 32 27 33 352 254 223 205 199 203 204 215 204 205 207 207 215
256 254 256 263 262 263 266 269 270 273 274 276 279 280 280 282 283 290 292 296 298 306 321 324 318 333 343 3 33 42 30 28 35 237 226 205 203 214 207 208 206 207 209 216
258 254 251 252 258 261 262 266 266 269 271 272 274 276 278 278 279 282 287 283 289 293 301 305 303 317 309 323 334 5 52 30 22 28 291 230 206 208 212 209 210 211 211 217
260 257 265 252 252 253 259 262 265 268 271 272 273 276 278 280 281 279 283 280 279 283 284 292 297 280 300 269 294 295 302 223 22 5 328 20 285 208 219 218 212 213 214 216
255 253 255 268 254 252 255 258 259 264 268 270 273 274 276 278 279 279 279 282 280 281 277 280 264 285 293 280 253 270 265 264 246 230 226 242 225 214 214 215 220 216 215 215
246 253 253 254 257 251 254 257 258 259 262 265 270 274 276 278 279 280 282 283 283 283 284 278 283 280 289 284 252 249 254 251 245 242 229 224 252 251 217 216 217 223 214 218